INTELSAT 33E DEB, 61990

Orbit data source: Space-Track

INTELSAT 33E DEB, 61990 is space debris in GEO originally from a launch on Wed, 24 Aug 2016 UTC launched from the French Guiana (FRGUI). Debris objects in space refer to the collection of defunct objects orbiting the Earth. Examples of debris include non-operational satellites, rocket bodies, and fragments generated from explosions, collisions, or faulty payload assembly.

Loading next visibility...
Identifier
61990, 2016-053G
Orbit
GEO
Country
Flag of UnknownUnknown / ITSO
Related business
Manufacturer
Boeing/ES
Mission
Spacecraft
Bus & Motor
Unknown
Mass
Unknown
Launch date (UTC)
2016-08-24 (9 years ago)
Launch vehicle
Unknown
Launch site
French Guiana (FRGUI)
Object type
Payload
Rocket body
Debris
Shape & HBR
Unknown shape, 1.1 m
Radar Cross Section
RCS unknown

Expand to show TLE details & history
Last TLE update: 1 day ago

TLE from 1 day ago
0 INTELSAT 33E DEB
1 61990U 16053G   25340.05582852 -.00000263  00000-0  00000-0 0  9991
2 61990   0.9793  73.8221 0111105 282.5807   3.5336  1.01384486  4198
Epoch: 2025-12-06T01:20Z
TLE epoch observation values (Epoch: 2025-12-06T01:20:23.584Z)
Latitude
-0.92964°
Longitude
-95.18499°
Altitude
35,015.167 km
Speed
3.12 km/s
True Right ascension
00h 00m 00s
True Declination
0° 55' 43"
Sunlit
Object was in daylight at epoch
Visualization orbit readout
Latitude
Unknown
Longitude
Unknown
Altitude
Unknown
Speed
Unknown
Apparent Right ascension
Unknown
Apparent Declination
Unknown
Sunlit
N/A
Visualization observer readout
Local Sidereal Time
08:38:05
Azimuth
Unknown
Elevation
Unknown
Doppler factor
Unknown
Orbital elements
Apogee altitude
35,943.648 km
Perigee altitude
35,013.549 km
Semi-major axis
41,856.735 km
Eccentricity
0.01111
Inclination
0.9793°
RAAN
73.8221°
Arg. of periapsis
282.5807°
True anomaly
3.61317°
Mean anomaly
3.5336°
Eccentric anomaly
3.57328°
Mean motion
0.25345 °/min
Orbital period
1,420.39 mins
BSTAR
0
Loading maneuver chart data...
Computing Atmospheric mass density...
Loading historical data...
Loading historical data...
Loading historical data...
Loading historical data...
Loading historical data...
Loading historical data...
Loading historical data...

Documentation

Showing up to 5 results
|